Weather History for KTTD - October, 2011

Change the Weather History Date:

Thursday, October 27, 2011

  Actual Average Record
Temperature  
Mean Temperature 47 °F 51 °F  
Max Temperature 58 °F 59 °F 74 °F (2003)
Min Temperature 35 °F 42 °F 29 °F (1948)
Degree Days  
Heating Degree Days 18 14  
Month to date heating degree days 250 288  
Cooling Degree Days 0 0  
Month to date cooling degree days 0 0  
Moisture  
Dew Point 39 °F    
Average Humidity 77    
Maximum Humidity 100    
Minimum Humidity 54    
Precipitation  
Precipitation 0.00 in 0.17 in 4.50 in (1994)
Month to date precipitation 1.50 3.19  
Year to date precipitation 27.82 31.76  
Snow  
Snow 0.00 in - - ()
Month to date snowfall 0.0  
Snow Depth 0.00 in    
Sea Level Pressure  
Sea Level Pressure 30.24 in    
Wind  
Wind Speed 5 mph (East)    
Max Wind Speed 22 mph    
Max Gust Speed 29 mph    
Visibility 6 miles    
Events Fog    
T = Trace of Precipitation, MM = Missing Value Source: NWS Daily Summary

Daily Weather History Graph

Daily Weather History Graph

Search for Another Location

Airport or City:

Trip Planner

Search our weather history database for the weather conditions in past years. The results will help you decide how hot, cold, wet, or windy it might be!

Date:

Astronomy

Oct. 27, 2011 Rise Set
Actual Time 7:42 AM PDT 6:04 PM PDT
Civil Twilight 7:11 AM PDT 6:34 PM PDT
Nautical Twilight 6:36 AM PDT 7:09 PM PDT
Astronomical Twilight 6:02 AM PDT 7:43 PM PDT
Moon 8:58 AM PDT (10/27) 6:30 PM PDT (10/27)
Length of Visible Light 11h 23m
Length of Day
10h 22m
New Moon, 1% of the Moon is Illuminated
Oct 27
New Moon
Nov 2
First Quarter
Nov 10
Full
Nov 18
Last Quarter
Nov 24
New

Hourly Weather History & Observations

Time (PDT) Temp. Windchill Dew Point Humidity Pressure Visibility Wind Dir Wind Speed Gust Speed Precip Events Conditions
12:53 AM 48.9 °F - 42.1 °F 77% 30.30 in 10.0 mi Calm Calm - N/A   Overcast
1:53 AM 46.9 °F - 43.0 °F 86% 30.31 in 10.0 mi Calm Calm - N/A   Overcast
2:53 AM 43.0 °F - 41.0 °F 93% 30.31 in 10.0 mi Calm Calm - N/A   Clear
5:02 AM 37.4 °F - 37.4 °F 100% 30.30 in 7.0 mi Calm Calm - N/A   Scattered Clouds
5:10 AM 37.4 °F - 37.4 °F 100% 30.30 in 5.0 mi Calm Calm - N/A   Mostly Cloudy
5:53 AM 39.0 °F - 37.9 °F 96% 30.29 in 10.0 mi Calm Calm - N/A   Overcast
6:25 AM 39.2 °F - 37.4 °F 93% 30.28 in 10.0 mi Calm Calm - N/A   Scattered Clouds
6:48 AM 37.4 °F - 37.4 °F 100% 30.27 in 1.0 mi Calm Calm - N/A   Clear
6:50 AM 37.4 °F - 37.4 °F 100% 30.27 in 0.8 mi Calm Calm - N/A   Mist
6:53 AM 37.9 °F - 37.0 °F 97% 30.27 in 0.5 mi Calm Calm - N/A Fog Fog
7:01 AM 37.4 °F - 37.4 °F 100% 30.27 in 1.2 mi Calm Calm - N/A   Partly Cloudy
7:21 AM 35.6 °F - 35.6 °F 100% 30.28 in 1.2 mi Calm Calm - N/A   Mostly Cloudy
7:29 AM 35.6 °F - 35.6 °F 100% 30.28 in 0.8 mi Calm Calm - N/A   Overcast
7:38 AM 35.6 °F - 35.6 °F 100% 30.28 in 1.2 mi Calm Calm - N/A   Overcast
7:41 AM 35.6 °F - 35.6 °F 100% 30.28 in 4.0 mi Calm Calm - N/A   Overcast
7:48 AM 37.4 °F - 35.6 °F 93% 30.28 in 1.0 mi Calm Calm - N/A   Overcast
7:53 AM 37.0 °F - 37.0 °F 100% 30.28 in 1.0 mi Calm Calm - N/A   Overcast
8:01 AM 37.4 °F - 37.4 °F 100% 30.28 in 0.5 mi Calm Calm - N/A Fog Fog
8:53 AM 41.0 °F - 41.0 °F 100% 30.28 in 1.0 mi Calm Calm - N/A   Overcast
9:00 AM 41.0 °F - 41.0 °F 100% 30.28 in 1.5 mi Calm Calm - N/A   Overcast
9:45 AM 42.8 °F - 42.8 °F 100% 30.29 in 1.0 mi Calm Calm - N/A   Overcast
9:53 AM 42.1 °F 40.2 °F 41.0 °F 96% 30.29 in 1.5 mi WSW 3.5 mph - N/A   Overcast
10:00 AM 41.0 °F - 41.0 °F 100% 30.28 in 2.0 mi Calm Calm - N/A   Overcast
10:34 AM 42.8 °F - 41.0 °F 93% 30.27 in 8.0 mi Calm Calm - N/A   Overcast
11:25 AM 46.4 °F 45.2 °F 41.0 °F 81% 30.27 in 9.0 mi Variable 3.5 mph - N/A   Scattered Clouds
11:53 AM 46.9 °F - 41.0 °F 80% 30.26 in 10.0 mi Variable 4.6 mph - N/A   Clear
12:53 PM 51.1 °F - 42.1 °F 71% 30.23 in 10.0 mi NNW 4.6 mph - N/A   Clear
1:53 PM 54.0 °F - 42.1 °F 64% 30.20 in 10.0 mi Calm Calm - N/A   Clear
2:53 PM 55.9 °F - 42.1 °F 60% 30.17 in 10.0 mi Variable 3.5 mph - N/A   Clear
3:53 PM 57.0 °F - 42.1 °F 57% 30.14 in 10.0 mi Calm Calm - N/A   Clear
4:53 PM 57.0 °F - 43.0 °F 59% 30.13 in 10.0 mi Calm Calm - N/A   Clear
6:53 PM 52.0 °F - 39.9 °F 63% 30.11 in 10.0 mi Variable 3.5 mph - N/A   Clear
7:53 PM 52.0 °F - 37.9 °F 59% 30.10 in 10.0 mi East 10.4 mph - N/A   Clear
8:53 PM 53.1 °F - 37.0 °F 55% 30.09 in 10.0 mi East 13.8 mph - N/A   Clear
9:53 PM 54.0 °F - 37.0 °F 53% 30.08 in 10.0 mi East 18.4 mph 25.3 mph N/A   Clear
10:53 PM 53.1 °F - 37.0 °F 55% 30.09 in 10.0 mi East 15.0 mph 25.3 mph N/A   Clear
11:53 PM 52.0 °F - 37.0 °F 57% 30.09 in 10.0 mi East 18.4 mph 25.3 mph N/A   Clear